Location: Alafon
(8.4500°N, 4.2333°E)
Time: 02:12:02
(UTC+00:00)

deb Explorer IX - Pass Details

Date: 30 July 2021
Orbit: 545 x 1092 km, 38.8° (Epoch: 16 September)

Event Time Altitude Azimuth Distance (km) Brightness Sun altitude
Rises 18:15:12 0° 337° (NNW) 3,672 ? -3.4°
Reaches altitude 10° 18:19:28 10° 3° (N) 2,820 ? -4.4°
Maximum altitude 18:22:41 14° 31° (NNE) 2,616 ? -5.1°
Drops below altitude 10° 18:25:59 10° 59° (ENE) 2,911 ? -5.9°
Enters shadow 18:29:34 - 79° (E) 3,648 ? -6.7°
Sets 18:30:30 0° 83° (E) 3,887 - -6.9°
